Meteo pe oră la Dzierzawy

Astăzi, 1 Octombrie, Joi

Timp Temperatura Precipitaţii Vânt Presiune Umiditate
00:00 +13°C° 0.4 mm 4 m/s 748 mmHg 92%
01:00 +13°C° 0 mm 4 m/s 747 mmHg 93%
02:00 +13°C° 0.1 mm 3 m/s 747 mmHg 92%
03:00 +13°C° 0.1 mm 3 m/s 747 mmHg 92%
04:00 +13°C° 0.1 mm 3 m/s 746 mmHg 91%
05:00 +12°C° 0 mm 3 m/s 746 mmHg 90%
06:00 +12°C° 0 mm 3 m/s 746 mmHg 88%
07:00 +12°C° 0 mm 3 m/s 746 mmHg 86%
08:00 +12°C° 0 mm 3 m/s 745 mmHg 84%
09:00 +12°C° 0 mm 3 m/s 745 mmHg 82%
10:00 +13°C° 0 mm 3 m/s 745 mmHg 80%
11:00 +13°C° 0 mm 3 m/s 745 mmHg 80%
12:00 +13°C° 0 mm 3 m/s 745 mmHg 81%
13:00 +12°C° 0 mm 3 m/s 744 mmHg 81%
14:00 +13°C° 0 mm 3 m/s 744 mmHg 82%
15:00 +13°C° 0 mm 3 m/s 744 mmHg 82%
16:00 +13°C° 0 mm 3 m/s 744 mmHg 83%
17:00 +14°C° 0 mm 2 m/s 744 mmHg 83%
18:00 +14°C° 0 mm 2 m/s 744 mmHg 83%
19:00 +13°C° 0 mm 2 m/s 744 mmHg 83%
20:00 +13°C° 0 mm 2 m/s 744 mmHg 85%
21:00 +13°C° 0 mm 2 m/s 744 mmHg 86%
22:00 +13°C° 0 mm 2 m/s 744 mmHg 88%
23:00 +13°C° 0.1 mm 2 m/s 744 mmHg 89%

Mâine, 2 Octombrie, Vineri

Timp Temperatura Precipitaţii Vânt Presiune Umiditate
00:00 +11°C° 0.1 mm 3 m/s 744 mmHg 91%
01:00 +11°C° 0.1 mm 3 m/s 744 mmHg 93%
02:00 +11°C° 0 mm 3 m/s 744 mmHg 93%
03:00 +11°C° 0 mm 3 m/s 743 mmHg 93%
04:00 +11°C° 0 mm 3 m/s 743 mmHg 94%
05:00 +12°C° 0 mm 3 m/s 743 mmHg 93%
06:00 +12°C° 0 mm 3 m/s 744 mmHg 93%
07:00 +12°C° 0 mm 3 m/s 744 mmHg 92%
08:00 +13°C° 0.1 mm 3 m/s 744 mmHg 88%
09:00 +13°C° 0.1 mm 3 m/s 744 mmHg 84%
10:00 +14°C° 0.1 mm 3 m/s 744 mmHg 80%
11:00 +16°C° 0.2 mm 3 m/s 744 mmHg 77%
12:00 +17°C° 0.2 mm 3 m/s 744 mmHg 73%
13:00 +17°C° 0.2 mm 3 m/s 744 mmHg 70%
14:00 +17°C° 0.4 mm 3 m/s 744 mmHg 72%
15:00 +17°C° 0.4 mm 3 m/s 744 mmHg 74%
16:00 +17°C° 0.4 mm 3 m/s 744 mmHg 76%
17:00 +16°C° 0.1 mm 3 m/s 744 mmHg 80%
18:00 +14°C° 0.1 mm 3 m/s 744 mmHg 85%
19:00 +13°C° 0.1 mm 3 m/s 744 mmHg 89%
20:00 +13°C° 0 mm 4 m/s 744 mmHg 90%
21:00 +13°C° 0 mm 4 m/s 744 mmHg 90%
22:00 +13°C° 0 mm 4 m/s 744 mmHg 90%
23:00 +13°C° 0.2 mm 5 m/s 744 mmHg 90%

Poimâine, 3 Octombrie, Sâmbătă

Timp Temperatura Precipitaţii Vânt Presiune Umiditate
00:00 +13°C° 0.2 mm 5 m/s 743 mmHg 89%
01:00 +13°C° 0.2 mm 6 m/s 743 mmHg 89%
02:00 +14°C° 0.1 mm 6 m/s 742 mmHg 87%
03:00 +14°C° 0.1 mm 7 m/s 742 mmHg 85%
04:00 +14°C° 0.1 mm 7 m/s 742 mmHg 83%
05:00 +14°C° 0 mm 7 m/s 741 mmHg 82%
06:00 +15°C° 0 mm 7 m/s 741 mmHg 80%
07:00 +15°C° 0 mm 7 m/s 741 mmHg 79%
08:00 +17°C° 0 mm 8 m/s 741 mmHg 72%
09:00 +18°C° 0 mm 8 m/s 740 mmHg 65%
10:00 +21°C° 0 mm 8 m/s 740 mmHg 57%
11:00 +23°C° 0 mm 8 m/s 740 mmHg 53%
12:00 +24°C° 0 mm 8 m/s 740 mmHg 49%
13:00 +26°C° 0 mm 8 m/s 740 mmHg 45%
14:00 +26°C° 0 mm 7 m/s 740 mmHg 48%
15:00 +24°C° 0 mm 6 m/s 739 mmHg 51%
16:00 +25°C° 0 mm 5 m/s 739 mmHg 54%
17:00 +22°C° 0 mm 5 m/s 740 mmHg 57%
18:00 +21°C° 0 mm 5 m/s 740 mmHg 59%
19:00 +20°C° 0 mm 5 m/s 740 mmHg 61%
20:00 +20°C° 0 mm 6 m/s 740 mmHg 61%
21:00 +20°C° 0 mm 6 m/s 740 mmHg 60%
22:00 +20°C° 0 mm 7 m/s 740 mmHg 59%
23:00 +20°C° 0 mm 7 m/s 740 mmHg 58%

4 Octombrie, Duminică

Timp Temperatura Precipitaţii Vânt Presiune Umiditate
00:00 +21°C° 0 mm 7 m/s 739 mmHg 58%
01:00 +21°C° 0 mm 7 m/s 739 mmHg 57%
02:00 +21°C° 0 mm 7 m/s 739 mmHg 56%
03:00 +21°C° 0 mm 7 m/s 739 mmHg 55%
04:00 +21°C° 0 mm 7 m/s 739 mmHg 55%
05:00 +21°C° 0 mm 7 m/s 740 mmHg 58%
06:00 +20°C° 0 mm 7 m/s 740 mmHg 61%
07:00 +20°C° 0 mm 6 m/s 740 mmHg 64%
08:00 +20°C° 0.1 mm 7 m/s 741 mmHg 64%
09:00 +20°C° 0.1 mm 7 m/s 741 mmHg 65%
10:00 +21°C° 0.1 mm 7 m/s 741 mmHg 65%
11:00 +21°C° 0.1 mm 7 m/s 742 mmHg 61%
12:00 +21°C° 0.1 mm 7 m/s 743 mmHg 57%
13:00 +22°C° 0.1 mm 7 m/s 743 mmHg 53%
14:00 +21°C° 0 mm 6 m/s 744 mmHg 56%
15:00 +21°C° 0 mm 5 m/s 744 mmHg 58%
16:00 +20°C° 0 mm 4 m/s 744 mmHg 60%
17:00 +19°C° 0 mm 4 m/s 744 mmHg 63%
18:00 +18°C° 0 mm 3 m/s 745 mmHg 66%
19:00 +17°C° 0 mm 2 m/s 745 mmHg 69%
20:00 +17°C° 0 mm 3 m/s 745 mmHg 69%
21:00 +17°C° 0 mm 3 m/s 745 mmHg 69%
22:00 +15°C° 0 mm 4 m/s 745 mmHg 69%
23:00 +15°C° 0 mm 4 m/s 745 mmHg 70%

5 Octombrie, Luni

Timp Temperatura Precipitaţii Vânt Presiune Umiditate
00:00 +15°C° 0 mm 4 m/s 745 mmHg 71%
01:00 +14°C° 0 mm 4 m/s 745 mmHg 72%
02:00 +14°C° 0 mm 4 m/s 745 mmHg 74%
03:00 +14°C° 0 mm 4 m/s 744 mmHg 75%
04:00 +14°C° 0 mm 4 m/s 744 mmHg 76%
05:00 +14°C° 0 mm 4 m/s 744 mmHg 78%
06:00 +15°C° 0 mm 4 m/s 744 mmHg 80%
07:00 +15°C° 0 mm 4 m/s 744 mmHg 82%
08:00 +17°C° 0.1 mm 5 m/s 743 mmHg 73%
09:00 +20°C° 0.1 mm 6 m/s 743 mmHg 63%
10:00 +22°C° 0.1 mm 7 m/s 743 mmHg 54%
11:00 +22°C° 0 mm 8 m/s 743 mmHg 50%
12:00 +23°C° 0 mm 8 m/s 743 mmHg 47%
13:00 +23°C° 0 mm 9 m/s 743 mmHg 43%
14:00 +23°C° 0 mm 7 m/s 743 mmHg 47%
15:00 +22°C° 0 mm 6 m/s 744 mmHg 50%
16:00 +21°C° 0 mm 5 m/s 744 mmHg 54%
17:00 +20°C° 0 mm 5 m/s 744 mmHg 57%
18:00 +19°C° 0 mm 5 m/s 745 mmHg 61%
19:00 +17°C° 0 mm 6 m/s 745 mmHg 64%
20:00 +16°C° 0 mm 5 m/s 746 mmHg 67%
21:00 +15°C° 0 mm 5 m/s 746 mmHg 71%
22:00 +14°C° 0 mm 4 m/s 747 mmHg 75%
23:00 +13°C° 0 mm 3 m/s 747 mmHg 77%

6 Octombrie, Marţi

Timp Temperatura Precipitaţii Vânt Presiune Umiditate
00:00 +13°C° 0 mm 3 m/s 748 mmHg 80%
01:00 +13°C° 0 mm 2 m/s 748 mmHg 82%
02:00 +13°C° 0 mm 2 m/s 748 mmHg 82%
03:00 +12°C° 0 mm 2 m/s 748 mmHg 83%
04:00 +12°C° 0 mm 2 m/s 748 mmHg 83%
05:00 +12°C° 0 mm 2 m/s 749 mmHg 81%
06:00 +13°C° 0 mm 2 m/s 749 mmHg 79%
07:00 +13°C° 0 mm 2 m/s 749 mmHg 77%
08:00 +15°C° 0 mm 2 m/s 749 mmHg 71%
09:00 +16°C° 0 mm 2 m/s 749 mmHg 66%
10:00 +18°C° 0 mm 2 m/s 749 mmHg 60%
11:00 +19°C° 0 mm 2 m/s 748 mmHg 58%
12:00 +20°C° 0 mm 1 m/s 748 mmHg 57%
13:00 +21°C° 0 mm 1 m/s 747 mmHg 55%
14:00 +19°C° 0 mm 2 m/s 747 mmHg 60%
15:00 +19°C° 0 mm 2 m/s 747 mmHg 64%
16:00 +18°C° 0 mm 2 m/s 746 mmHg 69%
17:00 +17°C° 1.5 mm 3 m/s 746 mmHg 76%
18:00 +16°C° 1.5 mm 3 m/s 746 mmHg 83%
19:00 +14°C° 1.5 mm 4 m/s 745 mmHg 90%
20:00 +14°C° 1 mm 4 m/s 746 mmHg 88%
21:00 +14°C° 1 mm 4 m/s 746 mmHg 87%
22:00 +14°C° 1 mm 5 m/s 746 mmHg 85%
23:00 +13°C° 0.4 mm 5 m/s 747 mmHg 85%
Arată mai mult

We Need Your Consent

Meteoprog and our Service Providers may store and access personal data such as cookies, device identifiers or other similar technologies on your device and process such data to personalise content and ads, as well as provide social media features and to analyse the traffic.

  • Store and/or access information on your device

    Cookies, device identifiers or other information can be stored or accessed on your device for the purposes indicated above.

  • Personalised ads and content, ad and content measurement, audience insights, and products development

    Ads and content can be personalised based on a profile. More data can be added to better personalise ads and content. Ad and content performance can be measured. Insights about the audience who saw the ads and content can be derived. Such data can be used to develop or improve user’s experience, systems and software.

By clicking ‘I Agree’ you will allow the use of indicated cookies, device identifiers, web beacons or other similar technologies. Your settings can be changed in the browser on your device.

For certain purposes, legitimate interests may be relied on, rather than consent. You can read more about this in our Privacy and Cookie Policy.